[[{"header":{"parameterUnit":"m.s-1","parameterCategory":1,"la1":30.2991,"la2":30.254,"lo1":-89.0895,"lo2":-89.0444,"dy":0.0017,"dx":0.0017,"nx":28,"ny":28,"refTime":"2024-08-20T03:00:00:Z","depth":0,"parameterNumber":2,"parameterNumberName":"U-component_of_WINDS"},"data":[0,0,0,0,0,0,0,0,0,0,0,0,0,0,0,0,0,0,0,0,0,0,0,0,0,0,0,0,0,0,0,0,0,0,0,0,0,0,0,0,0,0,0,0,0,0,0,0,0,0,0,0,0,0,0,0,0,0,-0.1834,-0.1834,0,-0.1782,-0.1781,-0.1781,-0.1752,-0.1752,-0.1752,-0.1752,-0.1693,-0.1691,-0.1689,0,0,0,0,0,0,0,0,0,0,0,0,0,-0.1904,-0.1903,-0.1834,-0.1834,-0.1833,-0.1782,-0.1781,-0.1781,-0.1752,-0.1752,-0.1752,-0.1752,-0.1693,-0.1691,-0.1689,0,0,0,0,0,0,0,0,0,0,0,0,0,-0.1865,-0.1902,-0.1834,-0.1813,-0.1811,-0.1782,-0.1781,-0.178,-0.1752,-0.1752,-0.1752,-0.1752,-0.1694,-0.1691,-0.1689,-0.1676,0,0,-0.1682,-0.1681,0,0,0,0,0,0,0,0,-0.1867,-0.1862,-0.1817,-0.1814,-0.1812,-0.1774,-0.1784,-0.1745,-0.1752,-0.1774,-0.1752,-0.1752,-0.1719,-0.1715,-0.1705,-0.1673,-0.1671,-0.1682,-0.168,-0.1679,-0.1679,0,0,0,0,0,0,0,-0.187,-0.1864,-0.1813,-0.1816,-0.1813,-0.1804,-0.1798,-0.1776,-0.1748,-0.1772,-0.177,-0.1765,-0.1718,-0.1707,-0.1703,-0.167,-0.1682,-0.168,-0.1678,-0.1677,-0.1623,-0.1623,0,0,0,0,0,0,-0.1877,-0.1867,-0.1815,-0.1812,-0.184,-0.1803,-0.1796,-0.1786,-0.1748,-0.1742,-0.1765,-0.1764,-0.1711,-0.1706,-0.1701,-0.1683,-0.1679,-0.1677,-0.1676,-0.1623,-0.1623,-0.1623,0,0,0,0,0,0,-0.1878,-0.1872,-0.1817,-0.1839,-0.1831,-0.1802,-0.179,-0.1785,-0.1774,-0.1742,-0.1736,-0.176,-0.1711,-0.1704,-0.1683,-0.168,-0.1676,-0.1674,-0.1623,-0.1623,-0.1623,-0.1647,0,0,0,0,0,0,-0.188,-0.1873,-0.1869,-0.1839,-0.183,-0.1802,-0.179,-0.1784,-0.1771,-0.1769,-0.1736,-0.173,-0.171,-0.1686,-0.168,-0.1677,-0.1672,-0.1623,-0.1623,-0.1623,-0.1646,-0.1648,-0.1649,0,0,0,0,0,-0.1883,-0.1877,-0.1869,-0.1863,-0.1825,-0.1802,-0.1796,-0.1776,-0.1771,-0.1766,-0.1745,-0.1731,-0.1682,-0.1684,-0.1677,-0.1673,-0.1624,-0.1623,-0.1623,-0.1646,-0.1647,-0.1649,0,0,0,0,0,0,-0.1906,-0.1873,-0.1864,-0.1848,-0.1828,-0.1797,-0.1791,-0.1778,-0.1757,-0.1756,-0.1729,-0.1721,-0.1702,-0.1685,-0.1689,-0.1658,-0.1651,-0.1649,-0.167,-0.1672,-0.1673,-0.1677,-0.167,0,0,0,0,0,-0.191,-0.1896,-0.1866,-0.1855,-0.1846,-0.182,-0.1809,-0.1795,-0.1772,-0.1763,-0.174,-0.1717,-0.1696,-0.1683,-0.1662,-0.1643,-0.1635,-0.1637,-0.1638,-0.1639,-0.1638,-0.1626,-0.1627,-0.1623,-0.1623,-0.1623,0,0,-0.1917,-0.1897,-0.1889,-0.186,-0.1843,-0.1827,-0.1813,-0.1797,-0.1784,-0.176,-0.1739,-0.1721,-0.1693,-0.1673,-0.1663,-0.1658,-0.1637,-0.1639,-0.1641,-0.1639,-0.1626,-0.1627,-0.1627,-0.1623,-0.1623,-0.1623,0,0,-0.1922,-0.1906,-0.1895,-0.1878,-0.1853,-0.1835,-0.1833,-0.1803,-0.1791,-0.177,-0.1751,-0.1733,-0.1698,-0.1679,-0.1665,-0.1661,-0.1647,-0.1654,-0.1661,-0.165,-0.165,-0.165,-0.1648,-0.1648,-0.1653,-0.1653,-0.1653,0,-0.1933,-0.1911,-0.189,-0.1875,-0.1862,-0.1841,-0.1828,-0.1812,-0.178,-0.1771,-0.1766,-0.1721,-0.1701,-0.1675,-0.1675,-0.1664,-0.1658,-0.1658,-0.1652,-0.1652,-0.1652,-0.1649,-0.1649,-0.1654,-0.1654,-0.1654,-0.1654,0,-0.1926,-0.191,-0.1904,-0.1876,-0.1862,-0.1848,-0.1823,-0.1811,-0.1797,-0.1779,-0.1757,-0.1731,-0.1705,-0.1697,-0.1683,-0.1669,-0.1667,-0.1658,-0.165,-0.1654,-0.1651,-0.165,-0.1656,-0.1656,-0.1655,-0.1655,0,0,-0.1945,-0.1905,-0.1903,-0.189,-0.186,-0.1846,-0.183,-0.1806,-0.1796,-0.1774,-0.1759,-0.1729,-0.172,-0.1704,-0.1687,-0.1677,-0.1674,-0.1668,-0.1667,-0.167,-0.1656,-0.1663,-0.1663,-0.1664,-0.1664,-0.1664,-0.1658,0,-0.1945,-0.1919,-0.1899,-0.1879,-0.1863,-0.1842,-0.1828,-0.1807,-0.1789,-0.1771,-0.1751,-0.173,-0.1721,-0.171,-0.1699,-0.1677,-0.1671,-0.1677,-0.1648,-0.1648,-0.1657,-0.1662,-0.1669,-0.1665,-0.1657,-0.1657,-0.1657,0,-0.1943,-0.1924,-0.1903,-0.1874,-0.1866,-0.1854,-0.183,-0.1814,-0.1788,-0.1776,-0.1757,-0.174,-0.172,-0.1714,-0.1685,-0.1689,-0.1676,-0.1663,-0.1662,-0.1659,-0.1653,-0.1658,-0.1664,-0.1663,-0.1655,-0.1655,-0.1655,0,-0.1959,-0.1927,-0.1911,-0.19,-0.1865,-0.1857,-0.1842,-0.1817,-0.1803,-0.178,-0.1771,-0.1745,-0.1731,-0.1711,-0.1686,-0.1684,-0.1659,-0.1651,-0.1647,-0.1648,-0.1643,-0.1644,-0.1647,-0.1635,-0.1635,-0.1635,-0.1635,0,-0.1961,-0.1949,-0.1917,-0.1907,-0.1892,-0.1868,-0.1853,-0.1836,-0.1813,-0.1797,-0.1776,-0.1761,-0.173,-0.171,-0.169,-0.1669,-0.1662,-0.165,-0.1645,-0.1653,-0.1654,-0.1644,-0.1643,-0.1634,-0.1634,-0.1634,-0.1635,0,-0.1977,-0.1955,-0.1936,-0.1905,-0.1897,-0.1887,-0.1859,-0.1847,-0.1828,-0.1809,-0.1802,-0.1772,-0.1748,-0.1721,-0.1688,-0.1674,-0.1653,-0.1646,-0.1663,-0.166,-0.1657,-0.1658,-0.1654,-0.1651,-0.1641,-0.1641,-0.1641,0,-0.1981,-0.1971,-0.1939,-0.1928,-0.1914,-0.1897,-0.1883,-0.1858,-0.1844,-0.1813,-0.1804,-0.1779,-0.1758,-0.172,-0.1693,-0.1667,-0.1658,-0.1659,-0.1654,-0.1661,-0.1658,-0.1659,-0.1657,-0.166,-0.166,-0.1661,-0.1661,0,-0.1989,-0.1978,-0.1961,-0.1938,-0.1923,-0.1904,-0.1883,-0.1875,-0.1845,-0.183,-0.1806,-0.179,-0.1756,-0.173,-0.1701,-0.1682,-0.1666,-0.1662,-0.166,-0.1667,-0.1677,-0.1671,-0.1667,-0.1663,-0.1662,-0.1662,-0.1662,-0.1662,-0.1998,-0.1988,-0.1965,-0.1945,-0.1927,-0.1909,-0.1896,-0.1876,-0.1856,-0.1828,-0.1814,-0.179,-0.1762,-0.1721,-0.1703,-0.1682,-0.1677,-0.1674,-0.1673,-0.1672,-0.1674,-0.1681,-0.1676,-0.1676,-0.1676,-0.1676,-0.1676,0,-0.2005,-0.1989,-0.1971,-0.1944,-0.1928,-0.1916,-0.1892,-0.1879,-0.1859,-0.1836,-0.1815,-0.1787,-0.1762,-0.1733,-0.1705,-0.1694,-0.1686,-0.1687,-0.1688,-0.1684,-0.168,-0.1685,-0.1695,-0.1695,-0.1695,-0.1695,-0.1695,-0.1695,-0.2007,-0.199,-0.1976,-0.1949,-0.1932,-0.191,-0.1898,-0.188,-0.1861,-0.1831,-0.1811,-0.1793,-0.1767,-0.1737,-0.1712,-0.1704,-0.1694,-0.1699,-0.1688,-0.1686,-0.1684,-0.1683,-0.1687,-0.1697,-0.1697,-0.1693,-0.1693,-0.1693]},{"header":{"parameterUnit":"m.s-1","parameterCategory":1,"la1":30.2991,"la2":30.254,"lo1":-89.0895,"lo2":-89.0444,"dy":0.0017,"dx":0.0017,"nx":28,"ny":28,"refTime":"2024-08-20T03:00:00:Z","depth":0,"parameterNumber":3,"parameterNumberName":"V-component_of_WINDS"},"data":[0,0,0,0,0,0,0,0,0,0,0,0,0,0,0,0,0,0,0,0,0,0,0,0,0,0,0,0,0,0,0,0,0,0,0,0,0,0,0,0,0,0,0,0,0,0,0,0,0,0,0,0,0,0,0,0,0,0,-2.0261,-2.0262,0,-2.0361,-2.0362,-2.0363,-2.038,-2.0379,-2.0378,-2.0377,-2.0479,-2.0482,-2.0485,0,0,0,0,0,0,0,0,0,0,0,0,0,-2.0081,-2.0084,-2.0261,-2.0262,-2.0263,-2.0361,-2.0362,-2.0364,-2.038,-2.0379,-2.0378,-2.0377,-2.0477,-2.0482,-2.0486,0,0,0,0,0,0,0,0,0,0,0,0,0,-2.0168,-2.0085,-2.026,-2.0283,-2.0286,-2.036,-2.0362,-2.0364,-2.038,-2.0379,-2.0377,-2.0376,-2.0476,-2.0481,-2.0486,-2.0545,0,0,-2.0502,-2.0505,0,0,0,0,0,0,0,0,-2.0163,-2.0174,-2.0278,-2.0282,-2.0285,-2.0356,-2.0336,-2.0424,-2.038,-2.0344,-2.0377,-2.0376,-2.0439,-2.0447,-2.0469,-2.055,-2.0554,-2.0503,-2.0506,-2.0508,-2.051,0,0,0,0,0,0,0,-2.0157,-2.017,-2.03,-2.028,-2.0284,-2.0287,-2.0298,-2.0353,-2.0398,-2.0347,-2.0349,-2.036,-2.044,-2.0464,-2.0471,-2.0555,-2.0503,-2.0507,-2.0511,-2.0513,-2.0687,-2.0688,0,0,0,0,0,0,-2.0147,-2.0165,-2.0297,-2.0303,-2.022,-2.0292,-2.0304,-2.0335,-2.0397,-2.0405,-2.0361,-2.0361,-2.0455,-2.0465,-2.0475,-2.0546,-2.0508,-2.0513,-2.0516,-2.0685,-2.0687,-2.0689,0,0,0,0,0,0,-2.0143,-2.0159,-2.0293,-2.0235,-2.0252,-2.0296,-2.0331,-2.0338,-2.0361,-2.0408,-2.0416,-2.0377,-2.0455,-2.0467,-2.0527,-2.055,-2.0516,-2.052,-2.0684,-2.0686,-2.0688,-2.069,0,0,0,0,0,0,-2.0138,-2.0157,-2.018,-2.0235,-2.0255,-2.0344,-2.0332,-2.034,-2.037,-2.037,-2.0425,-2.0432,-2.0455,-2.0519,-2.0532,-2.0557,-2.0524,-2.0682,-2.0685,-2.0687,-2.0688,-2.0692,-2.0695,0,0,0,0,0,-2.0131,-2.0177,-2.0182,-2.0197,-2.0285,-2.0346,-2.0357,-2.0382,-2.0372,-2.0395,-2.0425,-2.0431,-2.0545,-2.0525,-2.054,-2.0566,-2.0681,-2.0684,-2.0687,-2.0686,-2.0691,-2.0695,0,0,0,0,0,0,-2.0124,-2.0185,-2.019,-2.0256,-2.0295,-2.0348,-2.0379,-2.0387,-2.043,-2.0428,-2.0457,-2.0469,-2.0527,-2.0553,-2.0529,-2.0625,-2.0612,-2.0618,-2.0606,-2.0611,-2.0615,-2.0607,-2.0529,0,0,0,0,0,-2.013,-2.0175,-2.0225,-2.0278,-2.0297,-2.0334,-2.0362,-2.0377,-2.042,-2.0436,-2.0471,-2.0511,-2.0556,-2.0585,-2.0629,-2.0692,-2.0703,-2.0717,-2.0721,-2.0723,-2.0729,-2.0762,-2.0768,-2.07,-2.07,-2.07,0,0,-2.0144,-2.0182,-2.0208,-2.0277,-2.031,-2.0354,-2.0349,-2.0396,-2.0429,-2.0444,-2.0502,-2.0528,-2.0575,-2.0635,-2.0664,-2.0659,-2.075,-2.0728,-2.0729,-2.0733,-2.0766,-2.0772,-2.0778,-2.0702,-2.0702,-2.0701,0,0,-2.019,-2.0224,-2.0271,-2.0303,-2.0352,-2.0377,-2.0388,-2.0439,-2.0457,-2.0516,-2.0527,-2.0566,-2.0643,-2.0676,-2.0702,-2.0758,-2.0765,-2.0772,-2.0791,-2.0823,-2.0828,-2.0833,-2.0852,-2.0859,-2.0777,-2.0777,-2.0777,0,-2.02,-2.0268,-2.0294,-2.034,-2.037,-2.0384,-2.0431,-2.0461,-2.0522,-2.0542,-2.0535,-2.0631,-2.0664,-2.0731,-2.0745,-2.0766,-2.0779,-2.0766,-2.0826,-2.0831,-2.0836,-2.0854,-2.0861,-2.0777,-2.0777,-2.0777,-2.0777,0,-2.0277,-2.0324,-2.0355,-2.0413,-2.0446,-2.0493,-2.0524,-2.0554,-2.0567,-2.0591,-2.0649,-2.0689,-2.074,-2.0757,-2.077,-2.0827,-2.0822,-2.082,-2.0807,-2.0842,-2.086,-2.0867,-2.0778,-2.0778,-2.0778,-2.0778,0,0,-2.0323,-2.0393,-2.0405,-2.043,-2.0485,-2.0521,-2.0567,-2.0618,-2.0642,-2.0683,-2.0722,-2.0786,-2.0784,-2.0814,-2.0831,-2.0859,-2.0899,-2.0854,-2.0855,-2.086,-2.0962,-2.0962,-2.097,-2.0903,-2.0905,-2.0906,-2.0957,0,-2.0375,-2.0459,-2.0482,-2.0552,-2.0595,-2.0608,-2.0649,-2.0686,-2.0709,-2.0748,-2.0774,-2.0818,-2.0813,-2.0831,-2.086,-2.0888,-2.092,-2.0885,-2.0939,-2.094,-2.0926,-2.0979,-2.0981,-2.1027,-2.0964,-2.0966,-2.0967,0,-2.0447,-2.0489,-2.0564,-2.0611,-2.063,-2.0665,-2.0712,-2.075,-2.0791,-2.0806,-2.0839,-2.0852,-2.09,-2.0884,-2.0949,-2.0925,-2.0948,-2.0965,-2.0967,-2.0973,-2.0955,-2.0986,-2.1043,-2.105,-2.0978,-2.0977,-2.0976,0,-2.0472,-2.0547,-2.0601,-2.0623,-2.0679,-2.0704,-2.0729,-2.0769,-2.0797,-2.0838,-2.0856,-2.0902,-2.0927,-2.0961,-2.0986,-2.0973,-2.1048,-2.1036,-2.1061,-2.1061,-2.1077,-2.1075,-2.1138,-2.1092,-2.1092,-2.1092,-2.1092,0,-2.0528,-2.0572,-2.0612,-2.0645,-2.0695,-2.0721,-2.0769,-2.0795,-2.083,-2.0867,-2.0882,-2.0916,-2.0947,-2.0985,-2.1005,-2.1055,-2.1066,-2.1079,-2.1084,-2.1078,-2.1076,-2.1093,-2.109,-2.1094,-2.1094,-2.1093,-2.1093,0,-2.0564,-2.0593,-2.0652,-2.07,-2.0713,-2.0748,-2.0789,-2.0821,-2.0844,-2.0891,-2.0903,-2.094,-2.0985,-2.1013,-2.1072,-2.1084,-2.1139,-2.1143,-2.1125,-2.1127,-2.1151,-2.1148,-2.1226,-2.1237,-2.1185,-2.1186,-2.1186,0,-2.0597,-2.0632,-2.0683,-2.0709,-2.0734,-2.0776,-2.0804,-2.083,-2.0859,-2.0908,-2.0934,-2.098,-2.1019,-2.1091,-2.1122,-2.1166,-2.117,-2.1195,-2.1177,-2.1169,-2.117,-2.1167,-2.117,-2.1198,-2.1198,-2.1198,-2.1199,0,-2.0653,-2.0665,-2.0706,-2.0751,-2.0784,-2.0821,-2.0858,-2.0878,-2.091,-2.0941,-2.0988,-2.1018,-2.1076,-2.1122,-2.1168,-2.1192,-2.1201,-2.1204,-2.1212,-2.1206,-2.1194,-2.12,-2.1132,-2.1202,-2.1202,-2.1201,-2.1201,-2.1201,-2.0689,-2.0719,-2.076,-2.0804,-2.0834,-2.0867,-2.0899,-2.0926,-2.0965,-2.1015,-2.1028,-2.1076,-2.1115,-2.1178,-2.1203,-2.1241,-2.1237,-2.1249,-2.1252,-2.1255,-2.1255,-2.1188,-2.1249,-2.1249,-2.1249,-2.1249,-2.1249,0,-2.0744,-2.077,-2.0811,-2.0861,-2.0895,-2.09,-2.094,-2.0968,-2.1011,-2.1046,-2.1083,-2.1136,-2.118,-2.1214,-2.1258,-2.1282,-2.1286,-2.1292,-2.1291,-2.1296,-2.1256,-2.1244,-2.1288,-2.1288,-2.1288,-2.1288,-2.1288,-2.1288,-2.0777,-2.0829,-2.0845,-2.0911,-2.0937,-2.0984,-2.1007,-2.1037,-2.1065,-2.1124,-2.116,-2.1182,-2.1216,-2.1263,-2.1303,-2.1311,-2.1327,-2.1332,-2.1341,-2.1303,-2.1299,-2.1295,-2.1284,-2.1335,-2.1335,-2.1378,-2.1379,-2.1379]}]]